Weather Roundup
Issued by NWS Springfield, MO

Home | Current Version | Previous Version | Text Only | Print | Product List | Glossary On
Versions: 1 2 3 4 5 6 7 8 9 10 11 12 13 14 15 16 17 18 19 20 21 22 23 24 25 26 27 28 29 30 31 32 33 34 35 36 37 38 39 40 41 42 43 44 45 46 47 48 49 50
000
NZUS99 KSGF 231357
HRRSGF

HOURLY WEATHER
NATIONAL WEATHER SERVICE SPRINGFIELD MO
900 AM CDT TUE MAY 23 2017

......SGF CWA......

CITY           SKY/WX    TMP DP  RH WIND       PRES   REMARKS
SPRINGFIELD    CLOUDY    62  58  86 NW8       29.84S
JOPLIN         CLOUDY    63  58  83 N12       29.87S
WEST PLAINS    CLOUDY    60  55  83 W5        29.83S
ROLLA          LGT RAIN  58  58 100 SW5       29.80F
OSAGE BEACH    CLOUDY    61  57  88 W8        29.83S
BRANSON        PTSUNNY   63  59  88 W3        29.85S

......SURROUNDING SGF CWA......

CITY           SKY/WX    TMP DP  RH WIND       PRES   REMARKS
CHANUTE        NOT AVBL
PARSONS        CLOUDY    59  53  80 N9        29.90R
COFFEYVILLE    CLOUDY    60  56  86 N12       29.89S
EMPORIA        PTSUNNY   56  49  77 N12       29.93S
HARRISON AR    PTSUNNY   61  57  87 NW7       29.84F

......KANSAS AND MISSOURI......

CITY           SKY/WX    TMP DP  RH WIND       PRES   REMARKS
KANSAS CTY INT CLOUDY    56  51  84 N12       29.90R
SEDALIA        CLOUDY    58  58 100 NW6       29.86S
ST JOSEPH      SUNNY     57  50  77 NW7       29.91R
ST LOUIS       PTSUNNY   68  54  60 CALM      29.80F
WICHITA        PTSUNNY   57  49  74 N17       29.97S
TOPEKA         CLOUDY    55  51  86 NW5       29.92S
OLATHE         CLOUDY    53  52  96 N13       29.89S

......TENNESSEE......

CITY           SKY/WX    TMP DP  RH WIND       PRES   REMARKS
MEMPHIS        NOT AVBL
NASHVILLE      CLOUDY    69  57  65 CALM      29.80F

......ARKANSAS.......

CITY           SKY/WX    TMP DP  RH WIND       PRES   REMARKS
FAYETTEVILLE   CLOUDY    59  57  93 NW5       29.86S
FT SMITH       PTSUNNY   64  57  78 W10       29.86S
LITTLE ROCK    PTSUNNY   66  58  75 SW5       29.83F

......OKLAHOMA.......

CITY           SKY/WX    TMP DP  RH WIND       PRES   REMARKS
TULSA          CLOUDY    63  58  83 N12       29.88R
PONCA CITY     PTSUNNY   58  52  80 N12       29.95S
MCALESTER      MOSUNNY   66  60  81 W7        29.89S
OKLAHOMA CITY  CLOUDY    57  54  89 N23G30    29.95R

......IOWA............

CITY           SKY/WX    TMP DP  RH WIND       PRES   REMARKS
DES MOINES     NOT AVBL
QUAD CITIES    CLOUDY    60  54  80 SW6       29.79S

......ILLINOIS........

CITY           SKY/WX    TMP DP  RH WIND       PRES   REMARKS
QUINCY         NOT AVBL
CHICAGO        LGT RAIN  60  54  80 SW13G22   29.82R



USA.gov is the U.S. government's official web portal to all federal, state and local government web resources and services.